Weather History for Clinton-Sherman, OK

Change the Weather History Date:

Tuesday, May 1, 2012

  Actual Average Record
Temperature  
Mean Temperature 76 °F -  
Max Temperature 90 °F 74 °F 93 °F (2002)
Min Temperature 61 °F 50 °F 39 °F (2011)
Cooling Degree Days 10    
Growing Degree Days 26 (Base 50)    
Moisture  
Dew Point 60 °F    
Average Humidity 67    
Maximum Humidity 88    
Minimum Humidity 33    
Precipitation  
Precipitation 0.00 in - - ()
Sea Level Pressure  
Sea Level Pressure 29.72 in    
Wind  
Wind Speed 18 mph (South)    
Max Wind Speed 30 mph    
Max Gust Speed 40 mph    
Visibility 10 miles    
Events Thunderstorm    
Averages and records for this station are not official NWS values.
T = Trace of Precipitation, MM = Missing Value Source: NWS Daily Summary

Daily Weather History Graph

Daily Weather History Graph

Search for Another Location

Airport:

Trip Planner

Search our weather history database for the weather conditions in past years. The results will help you decide how hot, cold, wet, or windy it might be!

Date:

Astronomy

May. 01, 2012 Rise Set
Actual Time 6:44 AM CDT 8:23 PM CDT
Civil Twilight 6:17 AM CDT 8:50 PM CDT
Nautical Twilight 5:44 AM CDT 9:23 PM CDT
Astronomical Twilight 5:10 AM CDT 9:58 PM CDT
Moon 3:38 PM CDT (5/1) 3:31 AM CDT (5/1)
Length of Visible Light 14h 33m
Length of Day
13h 38m
Waxing Gibbous, 74% of the Moon is Illuminated
May 1
Waxing Gibbous
May 5
Full
May 12
Last Quarter
May 20
New
May 28
First Quarter

Hourly Weather History & Observations

Time (CDT) Temp. Heat Index Dew Point Humidity Pressure Visibility Wind Dir Wind Speed Gust Speed Precip Events Conditions
12:00 AM 64.4 °F - 57.2 °F 77% 29.84 in 10.0 mi SSW 20.7 mph 29.9 mph N/A   Mostly Cloudy
12:20 AM 64.4 °F - 57.2 °F 77% 29.83 in 10.0 mi SSE 17.3 mph 24.2 mph N/A Thunderstorm Partly Cloudy
12:35 AM 62.6 °F - 57.2 °F 82% 29.85 in 10.0 mi South 9.2 mph - N/A   Partly Cloudy
12:53 AM 63.0 °F - 57.9 °F 84% 29.79 in 10.0 mi East 6.9 mph - N/A   Partly Cloudy
1:27 AM 62.6 °F - 57.2 °F 82% 29.82 in 10.0 mi SSE 11.5 mph - N/A   Clear
1:43 AM 62.6 °F - 57.2 °F 82% 29.81 in 10.0 mi South 9.2 mph - N/A Thunderstorm Thunderstorm
1:53 AM 62.1 °F - 57.0 °F 84% 29.75 in 10.0 mi SSE 10.4 mph - N/A   Clear
2:53 AM 62.1 °F - 55.9 °F 80% 29.76 in 10.0 mi South 12.7 mph - N/A   Clear
3:53 AM 61.0 °F - 57.0 °F 87% 29.76 in 10.0 mi South 5.8 mph - N/A   Clear
4:53 AM 63.0 °F - 57.0 °F 81% 29.74 in 10.0 mi SSE 16.1 mph - N/A   Clear
5:53 AM 62.1 °F - 57.0 °F 84% 29.76 in 10.0 mi SSE 20.7 mph 25.3 mph N/A   Clear
6:53 AM 62.1 °F - 57.0 °F 84% 29.77 in 10.0 mi SSE 17.3 mph - N/A   Clear
8:37 AM 66.2 °F - 62.6 °F 88% 29.81 in 10.0 mi South 19.6 mph 36.8 mph N/A   Partly Cloudy
8:53 AM 69.1 °F - 64.0 °F 84% 29.75 in 10.0 mi South 19.6 mph 32.2 mph N/A   Clear
9:53 AM 73.0 °F - 64.0 °F 73% 29.75 in 10.0 mi South 23.0 mph 29.9 mph N/A   Clear
10:53 AM 75.9 °F - 64.0 °F 67% 29.73 in 10.0 mi South 23.0 mph 36.8 mph N/A   Clear
11:53 AM 79.0 °F - 64.0 °F 60% 29.73 in 10.0 mi South 23.0 mph 35.7 mph N/A   Partly Cloudy
12:53 PM 82.0 °F 83.1 °F 63.0 °F 52% 29.70 in 10.0 mi South 27.6 mph 40.3 mph N/A   Clear
1:53 PM 84.9 °F 85.4 °F 62.1 °F 46% 29.68 in 10.0 mi South 27.6 mph 38.0 mph N/A   Clear
2:53 PM 87.1 °F 86.7 °F 60.1 °F 40% 29.66 in 10.0 mi South 29.9 mph 40.3 mph N/A   Clear
3:53 PM 89.1 °F 88.2 °F 59.0 °F 36% 29.64 in 10.0 mi South 27.6 mph 34.5 mph N/A   Clear
4:53 PM 90.0 °F 88.6 °F 57.0 °F 33% 29.61 in 10.0 mi South 24.2 mph 34.5 mph N/A   Clear
5:53 PM 89.1 °F 87.7 °F 57.0 °F 34% 29.60 in 10.0 mi South 23.0 mph 35.7 mph N/A   Clear
6:53 PM 86.0 °F 86.3 °F 62.1 °F 44% 29.59 in 10.0 mi SSE 24.2 mph 39.1 mph N/A   Clear
7:53 PM 82.0 °F 83.0 °F 62.1 °F 51% 29.59 in 10.0 mi SSE 21.9 mph 35.7 mph N/A   Clear
8:53 PM 79.0 °F - 63.0 °F 58% 29.62 in 10.0 mi SSE 20.7 mph 33.4 mph N/A   Clear
9:53 PM 78.1 °F - 63.0 °F 60% 29.63 in 10.0 mi SSE 26.5 mph 35.7 mph N/A   Clear
10:53 PM 75.9 °F - 62.1 °F 62% 29.66 in 10.0 mi SSE 23.0 mph 31.1 mph N/A   Clear
11:53 PM 75.0 °F - 62.1 °F 64% 29.67 in 10.0 mi South 25.3 mph 38.0 mph N/A   Clear